Regional Weather Roundup
Issued by NWS

Home | Current Version | Previous Version | Graphics & Text | Print | Product List | Glossary On
Versions: 1 2 3 4 5 6 7 8 9 10 11 12 13 14 15 16 17 18 19 20 21 22 23 24 25 26 27 28 29 30 31 32 33 34 35 36 37 38 39 40 41 42 43 44 45 46 47 48 49 50
000
ASUS43 KDTX 261510
RWRMI
MICHIGAN HOURLY REGIONAL WEATHER ROUNDUP
NATIONAL WEATHER SERVICE DETROIT/PONTIAC MI
1100 AM EDT TUE JUL 26 2016

NOTE: "FAIR" INDICATES FEW OR NO CLOUDS BELOW 12,000 FEET WITH NO
SIGNIFICANT WEATHER AND/OR OBSTRUCTION TO VISIBILITY.

MIZ047>049-052>055-059>063-066>070-074>076-081>083-261600-
SOUTHEAST LOWER MICHIGAN

CITY           SKY/WX    TMP DP  RH WIND       PRES   REMARKS
ADRIAN         SUNNY     79  61  53 SE6       30.08S
ALMA           SUNNY     80  69  69 CALM      30.07S
ANN ARBOR      SUNNY     81  62  52 VRB6      30.07S
BAD AXE        SUNNY     79  58  49 SW5       30.07S
CARO           SUNNY     80  62  53 W6        30.05F
DETROIT CITY   SUNNY     80  62  54 NE5       30.06F
DETROIT        MOSUNNY   82  59  45 NE5       30.07S
FLINT          SUNNY     82  61  48 MISG      30.07F
GROSSE ILE     SUNNY     78  64  61 NE3       30.06S
HOWELL         SUNNY     80  60  51 W5        30.08S

CITY           SKY/WX    TMP DP  RH WIND       PRES   REMARKS
JACKSON        SUNNY     78  60  53 CALM      30.09S
LAMBERTVILLE   SUNNY     80  62  55 SE7       30.07S
LANSING        SUNNY     79  63  57 W7        30.08S
LAPEER         FAIR      78  58  49 CALM      30.07F
MASON          SUNNY     79  62  56 W5        30.08F
MONROE         SUNNY     79  65  61 CALM      30.06S
MT. CLEMENS    MOSUNNY   77  60  54 VRB6      30.05S
PONTIAC        MOSUNNY   79  59  50 NW5       30.07S
PORT HURON     SUNNY     77  61  57 CALM      30.06S
TRI CITIES     SUNNY     79  63  57 SW7       30.06F
MIDLAND        FAIR      79  63  57 SW6       30.05S
TROY           SUNNY     80  57  44 CALM      30.08S
SAGINAW HB     SUNNY     79  61  53 SW7       30.05F
$$
MIZ043>046-050>051-056>058-064>065-071>073-077>080-261600-
SOUTHWEST LOWER MICHIGAN

CITY           SKY/WX    TMP DP  RH WIND       PRES   REMARKS
BATTLE CREEK   SUNNY     77  63  61 CALM      30.09S
BENTON HARBOR  SUNNY     82  62  50 NE5       30.07S
BIG RAPIDS     SUNNY     79  62  55 N3        30.07S
COLDWATER      SUNNY     77  62  59 CALM      30.09S
FREMONT        FAIR      80  63  56 CALM      30.06S
HOLLAND        SUNNY     81  67  62 VRB7      30.08S
GRAND RAPIDS   MOSUNNY   82  66  58 W6        30.07S
IONIA          FAIR      78  64  60 W6        30.07S
KALAMAZOO      SUNNY     80  60  50 SE3       30.09R
LUDINGTON      SUNNY     78  68  72 SW5       30.05F
MARSHALL       SUNNY     78  61  55 CALM      30.09R
MOUNT PLEASANT SUNNY     80  65  60 SW6       30.05S
MUSKEGON       MOSUNNY   83  65  54 W8        30.06S
SOUTH HAVEN    SUNNY     81  64  57 CALM      30.07S
$$
MIZ016>042-261600-
NORTHERN LOWER MICHIGAN

CITY           SKY/WX    TMP DP  RH WIND       PRES   REMARKS
ALPENA         SUNNY     81  56  42 W8        30.03S
BEAVER ISLAND  SUNNY     77  63  61 SW9       30.02S
BELLAIRE       SUNNY     79  63  56 CALM      30.03F
CADILLAC       SUNNY     80  61  52 NW3       30.07S
CHARLEVOIX     SUNNY     79  61  54 W8        30.05F
FRANKFORT      SUNNY     77  67  71 W5        30.04F
GAYLORD        SUNNY     78  58  49 VRB7      30.06F
GRAYLING       SUNNY     79  60  52 SW5       30.06F
HARBOR SPRINGS SUNNY     75  63  67 SW6       30.02F
HOUGHTON LAKE  SUNNY     75  62  64 W5        30.08S
MANISTEE       SUNNY     80  65  59 W3        30.04F
OSCODA         SUNNY     81  55  40 W9        30.03F
ROGERS CITY    SUNNY     80  58  47 W8        30.02F
TRAVERSE CITY  MOSUNNY   82  58  43 N7        30.02F
$$
MIZ007>008-015-261600-
EASTERN UPPER MICHIGAN

CITY           SKY/WX    TMP DP  RH WIND       PRES   REMARKS
KINROSS        SUNNY     77  62  59 W7        30.00F
MACKINAC ISLAN SUNNY     73  65  74 SW9       30.01F
NEWBERRY       SUNNY     79  63  57 SW5       29.99F
S. S. MARIE    SUNNY     77  62  59 W7        29.99S
MUNISING         N/A     81  63  54 N7        29.97F
$$
MIZ004>006-011>014-085-261600-
CENTRAL UPPER MICHIGAN

CITY           SKY/WX    TMP DP  RH WIND       PRES   REMARKS
MANISTIQUE     SUNNY     77  66  69 SW5       30.00S
ESCANABA       SUNNY     81  64  57 CALM      29.99F
MENOMINEE      SUNNY    N/A N/A N/A CALM      30.03F
SAWYER-GWINN   SUNNY     79  63  57 SW7       30.01F
$$
MIZ001>003-009>011-084-261600-
WESTERN UPPER MICHIGAN

CITY           SKY/WX    TMP DP  RH WIND       PRES   REMARKS
IRON MOUNTAIN  SUNNY     80  64  58 VRB5      30.02F
HOUGHTON       CLOUDY    74  64  71 NW10      29.98F
COPPER HARBOR    N/A     75  62  64 VRB3      29.95S
IRONWOOD       SUNNY     79  70  73 SW7       29.98F
$$

ABBREVIATIONS USED IN REMARKS
   TC - TEMPERATURE IN CELSIUS
  WCI - WIND CHILL INDEX
   HX - HEAT INDEX
  VSB - VISIBILITY




USA.gov is the U.S. government's official web portal to all federal, state and local government web resources and services.